TimeEST,TemperatureF,Dew PointF,Humidity,Sea Level PressureIn,VisibilityMPH,Wind Direction,Wind SpeedMPH,Gust SpeedMPH,PrecipitationIn,Events,Conditions,WindDirDegrees,DateUTC
12:54 AM,37.9,34.0,86,29.84,10.0,WSW,6.9,-,N/A,,Mostly Cloudy,240,2011-12-26 05:54:00
1:54 AM,41.0,34.0,76,29.84,10.0,West,11.5,17.3,N/A,,Overcast,270,2011-12-26 06:54:00
2:54 AM,39.9,33.1,77,29.84,10.0,WNW,8.1,-,N/A,,Overcast,300,2011-12-26 07:54:00
3:54 AM,39.9,32.0,73,29.83,10.0,WNW,6.9,-,N/A,,Overcast,290,2011-12-26 08:54:00
4:54 AM,39.0,32.0,76,29.85,10.0,WNW,8.1,-,N/A,,Overcast,290,2011-12-26 09:54:00
5:54 AM,39.0,30.9,73,29.87,10.0,WNW,11.5,-,N/A,,Scattered Clouds,290,2011-12-26 10:54:00
6:54 AM,37.9,30.0,73,29.90,10.0,WNW,12.7,-,N/A,,Scattered Clouds,290,2011-12-26 11:54:00
7:54 AM,37.0,28.0,70,29.95,10.0,NW,17.3,28.8,N/A,,Scattered Clouds,320,2011-12-26 12:54:00
8:54 AM,37.0,27.0,67,30.00,10.0,NW,16.1,24.2,N/A,,Mostly Cloudy,320,2011-12-26 13:54:00
9:54 AM,39.0,27.0,62,30.04,10.0,NW,20.7,27.6,N/A,,Scattered Clouds,320,2011-12-26 14:54:00
10:54 AM,42.1,25.0,51,30.06,10.0,NW,20.7,32.2,N/A,,Scattered Clouds,310,2011-12-26 15:54:00
11:54 AM,42.1,24.1,49,30.06,10.0,NNW,12.7,-,N/A,,Partly Cloudy,340,2011-12-26 16:54:00
12:54 PM,41.0,21.0,45,30.09,10.0,NW,15.0,25.3,N/A,,Partly Cloudy,310,2011-12-26 17:54:00
1:54 PM,41.0,19.9,43,30.09,10.0,NW,19.6,26.5,N/A,,Partly Cloudy,320,2011-12-26 18:54:00
2:54 PM,41.0,19.9,43,30.12,10.0,NNW,13.8,19.6,N/A,,Partly Cloudy,340,2011-12-26 19:54:00
3:54 PM,39.0,19.9,46,30.16,10.0,North,10.4,-,N/A,,Clear,350,2011-12-26 20:54:00
4:54 PM,37.0,19.9,50,30.19,10.0,NNW,9.2,-,N/A,,Clear,330,2011-12-26 21:54:00
5:54 PM,36.0,19.9,52,30.24,10.0,NNW,4.6,-,N/A,,Clear,330,2011-12-26 22:54:00
6:54 PM,34.0,19.9,56,30.26,10.0,Calm,Calm,-,N/A,,Clear,0,2011-12-26 23:54:00
7:54 PM,35.1,19.0,52,30.25,10.0,Calm,Calm,-,N/A,,Clear,0,2011-12-27 00:54:00
8:54 PM,36.0,17.1,46,30.24,10.0,West,5.8,-,N/A,,Clear,280,2011-12-27 01:54:00
9:54 PM,32.0,19.9,61,30.20,10.0,SSW,8.1,-,N/A,,Clear,200,2011-12-27 02:54:00
10:54 PM,32.0,19.0,59,30.19,10.0,WSW,5.8,-,N/A,,Clear,240,2011-12-27 03:54:00
11:54 PM,32.0,19.9,61,30.19,10.0,West,6.9,-,N/A,,Clear,260,2011-12-27 04:54:00